CAPE
0 0 4 25 28 4 29 24 71 67 35 14 32 46 29 521 522 418 111 437 78 8 109 144 85 68 54 71 31 26 147 213 457 491 305 199 232 485 655 611 649 616 431 310
5 0 2 14 1 1 9 26 45 67 35 0 17 48 19 300 462 567 444 201 360 187 143 128 163 165 72 21 1 19 200 407 526 398 169 75 224 568 713 665 516 329 43 45
1 3 4 0 0 0 22 36 45 54 22 1 0 30 54 142 451 561 609 345 376 304 216 160 230 252 198 72 76 122 313 525 716 383 73 132 550 417 477 497 366 182 67 84
0 0 0 0 0 22 36 18 1 11 10 11 56 13 82 60 195 480 584 624 376 411 245 196 260 275 269 270 308 366 505 640 742 956 238 313 583 521 508 528 232 30 54 24
0 0 0 0 0 12 30 0 0 21 78 109 91 2 31 15 50 137 346 668 651 473 459 302 283 266 328 392 385 426 522 591 740 827 781 495 479 449 554 449 94 64 53 49
0 0 0 0 3 3 7 0 15 72 124 151 43 99 32 26 3 13 74 330 601 736 569 429 432 319 331 1025 1010 987 530 575 796 1129 1065 875 667 556 478 204 38 50 0 0
0 1 0 0 0 0 0 54 166 140 188 165 84 48 42 63 8 4 10 74 259 590 880 727 432 470 434 643 1023 1111 842 822 883 1192 1245 1272 1082 887 479 143 30 71 63 35
0 0 0 0 0 7 7 74 168 168 115 177 33 32 39 24 2 0 1 23 55 230 669 988 990 665 531 944 1183 1012 1000 935 849 925 1060 1010 997 783 404 202 73 56 55 85
0 0 5 7 0 3 58 61 94 145 93 143 144 123 90 25 0 0 27 78 157 297 251 527 899 1245 1045 985 1113 1379 1152 972 916 1030 1288 1153 798 677 635 514 258 63 69 55
2 13 3 0 0 0 13 54 61 73 50 123 136 106 120 14 0 16 20 11 243 278 296 364 545 986 1315 1305 992 1338 1143 984 1003 1029 1116 867 661 646 603 485 235 158 85 62
5 1 34 7 0 6 1 45 63 91 69 127 162 132 39 1 14 0 5 0 3 153 325 374 524 731 1041 1409 1288 1238 1110 912 911 1093 1073 774 810 572 393 323 229 159 110 90
0 2 51 3 0 0 44 24 54 84 57 75 75 129 63 17 42 17 4 0 2 38 212 391 466 528 760 1191 1352 1435 1333 1052 947 1065 1082 541 543 334 375 297 342 190 120 52
0 9 11 34 13 0 0 24 67 75 91 66 269 124 56 37 36 21 34 5 0 24 117 403 588 744 828 1020 1238 1376 1384 1210 1001 1208 781 323 414 420 724 258 139 54 19 19
38 5 6 1 5 20 1 0 24 50 213 62 41 34 45 42 35 56 80 47 5 0 63 309 667 833 1026 1034 1229 1253 1305 1245 1003 765 515 284 561 573 236 72 5 10 3 4
14 25 7 0 20 27 14 5 2 12 24 55 20 34 17 25 30 39 50 66 15 0 0 26 346 884 1198 1304 1303 1216 1303 892 624 343 160 279 379 217 80 43 35 35 47 16
62 67 8 18 13 17 11 1 4 5 8 5 7 16 34 51 24 0 0 0 0 0 0 0 43 497 1269 1356 1311 961 753 391 313 210 202 270 128 78 66 52 93 51 47 57
95 152 63 2 23 28 56 0 5 5 7 7 16 21 45 47 16 0 0 0 0 0 26 22 49 592 1117 1060 792 737 479 439 242 205 225 113 141 110 82 37 27 62 29 0
121 126 176 127 13 0 1 0 0 4 2 7 19 8 12 19 4 0 0 0 0 11 16 83 315 487 526 320 300 346 467 296 168 157 100 113 71 57 39 24 0 3 4 0
3 104 152 0 72 0 1 0 0 0 1 0 18 2 21 9 0 0 0 0 0 5 13 33 102 116 53 27 172 325 258 125 90 58 56 23 23 40 40 1 12 1 1 3
0 66 214 116 0 0 0 0 2 10 75 4 35 29 1 0 0 0 0 0 0 0 0 0 0 2 0 0 39 86 64 53 31 23 19 10 11 0 0 0 2 6 2 0
44 23 137 183 193 3 0 2 12 53 82 50 17 0 0 0 0 0 0 0 0 0 0 0 0 0 0 0 0 0 0 2 0 0 0 0 0 0 7 6 1 0 0 0
68 88 127 157 279 0 4 3 25 122 149 63 22 0 0 0 0 0 0 0 0 0 0 0 0 0 0 0 0 0 0 0 0 0 0 1 0 9 6 0 0 0 0 0
129 72 104 113 121 126 40 75 92 88 142 114 43 1 0 0 0 0 0 0 0 0 0 0 0 0 0 0 0 0 0 0 0 0 2 0 1 0 0 0 0 0 0 0
0 2 97 83 26 104 114 85 55 73 71 54 18 2 0 0 0 0 0 0 0 0 0 0 0 0 0 0 0 0 0 0 0 0 0 0 0 0 0 0 0 0 0 0
9 20 36 15 8 51 97 107 153 101 23 17 2 0 0 0 0 0 0 0 0 0 0 0 0 0 0 0 0 0 0 0 0 0 0 0 0 0 0 0 0 0 0 0
5 1 146 101 71 107 88 88 168 152 87 33 3 3 0 0 0 0 0 0 0 0 0 0 0 0 0 0 0 0 0 0 0 0 0 0 0 0 0 0 0 0 0 0
CIN
-0 -0 -0 -0 -0 -0 -0 -0 -0 -1 -1 -0 -0 -0 -2 -1 -4 -4 -18 -0 -74 -125 -12 -16 -86 -19 -18 -1 -0 -2 -0 -4 -0 -0 -0 -0 -0 -0 -0 -0 -0 -0 -0 -3
-0 -0 -0 -0 -0 -0 -0 -0 -0 -0 -0 -0 -1 -0 -7 -0 -0 -6 -19 -12 -1 -18 -49 -50 -23 -25 -49 -58 -21 -19 -0 -0 -0 -0 -0 -7 -0 -0 -0 -0 -0 -7 -35 -17
-0 -0 -0 -0 -0 -0 -0 -0 -0 -0 -0 -4 -0 -3 -3 -0 -0 -0 -9 -9 -11 -11 -51 -78 -49 -22 -16 -51 -52 -26 -0 -0 -0 -0 -12 -3 -0 -0 -0 -0 -0 -27 -5 -15
-0 -0 -0 -0 -0 -0 -0 -1 -0 -0 -0 -12 -0 -13 -23 -0 -0 -0 -5 -2 -13 -23 -46 -64 -46 -48 -41 -20 -4 -0 -0 -0 -0 -0 -3 -0 -0 -0 -0 -0 -18 -9 -10 -5
-0 -0 -0 -0 -0 -0 -0 -0 -0 -14 -0 -0 -0 -0 -3 -1 -0 -0 -2 -5 -1 -11 -27 -74 -85 -84 -68 -36 -34 -15 -7 -1 -0 -0 -2 -0 -0 -1 -1 -5 -45 -3 -15 -0
-0 -0 -0 -0 -0 -0 -1 -0 -32 -3 -0 -0 -1 -0 -7 -2 -0 -11 -1 -5 -9 -0 -9 -18 -54 -56 -58 -3 -2 -0 -12 -4 -0 -2 -0 -0 -0 -0 -1 -38 -4 -15 -6 -0
-0 -0 -0 -0 -0 -0 -0 -0 -0 -1 -0 -0 -4 -8 -1 -9 -0 -20 -1 -0 -0 -2 -0 -1 -2 -34 -48 -35 -16 -5 -8 -0 -0 -0 -0 -0 -0 -0 -15 -42 -8 -17 -17 -15
-0 -0 -0 -0 -0 -2 -0 -0 -0 -0 -1 -0 -8 -13 -0 -10 -2 -0 -33 -21 -18 -7 -1 -0 -2 -13 -29 -24 -21 -35 -31 -29 -12 -12 -15 -6 -5 -0 -20 -27 -36 -9 -4 -0
-0 -0 -0 -0 -0 -0 -0 -0 -0 -0 -2 -4 -0 -0 -8 -23 -0 -7 -26 -19 -10 -13 -17 -8 -0 -0 -8 -23 -34 -43 -46 -43 -26 -20 -7 -9 -11 -10 -4 -3 -12 -14 -0 -0
-0 -0 -1 -0 -0 -0 -4 -0 -0 -0 -0 -0 -0 -0 -0 -20 -0 -35 -17 -24 -3 -29 -32 -25 -21 -1 -0 -3 -55 -56 -59 -46 -27 -11 -10 -37 -44 -17 -5 -3 -1 -0 -1 -1
-0 -0 -0 -0 -0 -0 -0 -0 -0 -0 -0 -0 -0 -0 -22 -3 -0 -0 -5 -0 -37 -26 -26 -37 -28 -23 -8 -0 -18 -61 -65 -32 -5 -4 -20 -51 -34 -20 -4 -1 -0 -0 -0 -0
-0 -0 -0 -0 -0 -0 -0 -0 -0 -0 -0 -0 -0 -0 -1 -0 -0 -3 -10 -0 -8 -17 -10 -15 -24 -32 -33 -27 -8 -16 -34 -29 -4 -6 -7 -77 -53 -61 -18 -8 -0 -0 -0 -0
-0 -0 -0 -0 -0 -0 -0 -0 -0 -0 -0 -0 -0 -0 -0 -0 -10 -7 -5 -5 -0 -19 -6 -11 -17 -23 -32 -44 -33 -18 -18 -14 -1 -5 -53 -143 -77 -48 -3 -14 -24 -31 -20 -0
-23 -0 -0 -0 -0 -0 -0 -0 -0 -0 -0 -0 -0 -1 -0 -1 -4 -0 -1 -0 -8 -0 -6 -1 -7 -21 -30 -43 -42 -27 -14 -10 -20 -65 -109 -146 -51 -27 -51 -61 -78 -8 -10 -24
-6 -0 -0 -0 -0 -0 -0 -0 -0 -0 -0 -0 -0 -0 -0 -2 -2 -0 -0 -1 -6 -0 -0 -11 -4 -9 -31 -55 -59 -46 -32 -73 -112 -166 -46 -63 -70 -72 -40 -26 -6 -2 -0 -6
-6 -0 -0 -0 -0 -0 -0 -0 -1 -0 -0 -0 -0 -0 -1 -1 -0 -0 -0 -0 -0 -0 -0 -0 -40 -16 -18 -42 -48 -67 -116 -100 -41 -45 -129 -55 -70 -71 -47 -22 -0 -0 -0 -0
-0 -0 -0 -0 -0 -0 -2 -0 -0 -0 -0 -0 -0 -0 -0 -0 -0 -0 -0 -0 -0 -0 -110 -106 -67 -46 -48 -57 -114 -137 -155 -63 -72 -71 -55 -98 -75 -46 -29 -11 -2 -16 -0 -0
-2 -0 -0 -4 -28 -0 -0 -0 -0 -0 -0 -0 -0 -0 -0 -0 -0 -0 -0 -0 -46 -179 -196 -139 -109 -113 -104 -140 -185 -146 -99 -97 -107 -111 -108 -65 -65 -35 -11 -1 -0 -0 -0 -0
-9 -9 -1 -0 -0 -0 -0 -0 -0 -0 -0 -0 -0 -0 -0 -1 -0 -0 -0 -0 -0 -240 -227 -211 -175 -170 -198 -217 -133 -119 -108 -128 -83 -84 -89 -63 -37 -19 -12 -1 -0 -0 -0 -3
-0 -13 -0 -27 -0 -0 -0 -0 -72 -6 -0 -11 -0 -0 -0 -0 -0 -0 -0 -0 -0 -0 -0 -0 -0 -0 -0 -0 -152 -127 -110 -114 -86 -57 -41 -27 -6 -0 -0 -0 -0 -0 -0 -0
-4 -12 -2 -0 -1 -0 -0 -51 -29 -1 -40 -1 -2 -0 -0 -0 -0 -0 -0 -0 -0 -0 -0 -0 -0 -0 -0 -0 -0 -0 -0 -36 -0 -0 -0 -0 -0 -0 -0 -0 -0 -0 -0 -0
-2 -0 -3 -9 -4 -0 -5 -37 -33 -21 -1 -4 -7 -0 -0 -0 -0 -0 -0 -0 -0 -0 -0 -0 -0 -0 -0 -0 -0 -0 -0 -0 -0 -0 -0 -0 -0 -0 -0 -0 -0 -0 -0 -0
-0 -1 -1 -0 -0 -5 -18 -20 -52 -20 -9 -6 -16 -3 -0 -0 -0 -0 -0 -0 -0 -0 -0 -0 -0 -0 -0 -0 -0 -0 -0 -0 -0 -0 -0 -0 -0 -0 -0 -0 -0 -0 -0 -0
-3 -3 -1 -1 -1 -2 -7 -35 -41 -38 -50 -29 -63 -42 -14 -0 -0 -0 -0 -0 -0 -0 -0 -0 -0 -0 -0 -0 -0 -0 -0 -0 -0 -0 -0 -0 -0 -0 -0 -0 -0 -0 -0 -0
-1 -16 -22 -12 -14 -4 -6 -26 -34 -26 -18 -8 -2 -0 -0 -0 -0 -0 -0 -0 -0 -0 -0 -0 -0 -0 -0 -0 -0 -0 -0 -0 -0 -0 -0 -0 -0 -0 -0 -0 -0 -0 -0 -0
-0 -2 -0 -9 -26 -14 -13 -25 -5 -17 -38 -84 -49 -18 -0 -0 -0 -0 -0 -0 -0 -0 -0 -0 -0 -0 -0 -0 -0 -0 -0 -0 -0 -0 -0 -0 -0 -0 -0 -0 -0 -0 -0 -0
Wind_Speed
nan nan nan nan nan nan nan nan nan nan nan nan nan nan nan 28 17 17 19 29 nan nan 18 3 nan nan nan nan nan nan 3 3 7 8 7 4 2 3 6 8 8 13 14 9
nan nan nan nan nan nan nan nan nan nan nan nan nan nan nan 26 17 19 19 21 26 31 28 28 27 26 nan nan nan nan 14 9 9 7 4 nan 7 10 9 12 14 16 nan nan
nan nan nan nan nan nan nan nan nan nan nan nan nan nan nan 27 23 16 19 21 23 23 27 28 27 24 22 nan nan 17 14 11 10 7 nan 11 16 14 15 15 18 17 nan nan
nan nan nan nan nan nan nan nan nan nan nan nan nan nan nan nan 26 21 16 19 23 25 22 23 25 24 23 21 20 16 17 17 15 10 16 15 20 17 15 17 20 nan nan nan
nan nan nan nan nan nan nan nan nan nan nan 12 nan nan nan nan nan 25 19 20 23 26 29 25 24 24 23 21 18 18 16 15 21 19 10 18 13 17 21 22 nan nan nan nan
nan nan nan nan nan nan nan nan nan nan 6 3 nan nan nan nan nan nan nan 23 21 28 28 28 29 26 23 21 21 20 19 17 18 23 18 23 19 21 25 21 nan nan nan nan
nan nan nan nan nan nan nan nan 4 5 3 5 nan nan nan nan nan nan nan nan 27 27 20 23 31 27 23 27 24 21 22 20 22 25 24 22 23 23 26 25 nan nan nan nan
nan nan nan nan nan nan nan nan 3 6 10 10 nan nan nan nan nan nan nan nan nan 21 25 23 28 26 26 27 30 28 26 23 24 22 23 23 32 25 30 22 nan nan nan nan
nan nan nan nan nan nan nan nan nan 18 nan 14 10 9 nan nan nan nan nan nan 20 18 12 20 21 24 25 27 28 26 24 25 26 25 25 26 25 22 25 27 34 nan nan nan
nan nan nan nan nan nan nan nan nan nan nan 8 3 4 6 nan nan nan nan nan 26 21 18 13 16 21 23 26 26 27 25 25 27 30 28 27 27 30 32 36 38 42 nan nan
nan nan nan nan nan nan nan nan nan nan nan 9 7 10 nan nan nan nan nan nan nan 22 23 22 19 19 23 27 26 26 26 27 30 34 34 33 33 36 38 38 43 46 50 nan
nan nan nan nan nan nan nan nan nan nan nan nan nan 14 nan nan nan nan nan nan nan nan 23 23 23 22 21 23 27 29 28 29 36 38 42 42 39 44 50 52 51 51 53 nan
nan nan nan nan nan nan nan nan nan nan nan nan 19 16 nan nan nan nan nan nan nan nan 21 22 22 23 24 25 26 28 31 32 39 49 50 54 52 53 54 53 57 nan nan nan
nan nan nan nan nan nan nan nan nan nan 17 nan nan nan nan nan nan nan nan nan nan nan nan 20 21 23 26 30 32 33 37 41 48 55 53 54 52 51 50 nan nan nan nan nan
nan nan nan nan nan nan nan nan nan nan nan nan nan nan nan nan nan nan nan nan nan nan nan nan 20 28 30 32 34 36 40 44 47 47 48 48 52 50 nan nan nan nan nan nan
nan nan nan nan nan nan nan nan nan nan nan nan nan nan nan nan nan nan nan nan nan nan nan nan nan 25 32 34 37 40 42 44 44 45 46 46 47 nan nan nan nan nan nan nan
nan 26 nan nan nan nan nan nan nan nan nan nan nan nan nan nan nan nan nan nan nan nan nan nan nan 32 35 36 43 43 45 44 43 43 46 46 48 50 nan nan nan nan nan nan
43 30 28 31 nan nan nan nan nan nan nan nan nan nan nan nan nan nan nan nan nan nan nan nan 34 36 37 42 40 41 42 43 43 45 46 47 nan nan nan nan nan nan nan nan
nan 36 32 nan nan nan nan nan nan nan nan nan nan nan nan nan nan nan nan nan nan nan nan nan 37 40 nan nan 41 40 40 40 nan nan nan nan nan nan nan nan nan nan nan nan
nan nan 29 34 nan nan nan nan nan nan nan nan nan nan nan nan nan nan nan nan nan nan nan nan nan nan nan nan nan nan nan nan nan nan nan nan nan nan nan nan nan nan nan nan
nan nan 34 30 32 nan nan nan nan nan nan nan nan nan nan nan nan nan nan nan nan nan nan nan nan nan nan nan nan nan nan nan nan nan nan nan nan nan nan nan nan nan nan nan
nan nan 38 30 33 nan nan nan nan 14 14 nan nan nan nan nan nan nan nan nan nan nan nan nan nan nan nan nan nan nan nan nan nan nan nan nan nan nan nan nan nan nan nan nan
26 nan 34 34 35 29 nan nan nan nan 20 25 nan nan nan nan nan nan nan nan nan nan nan nan nan nan nan nan nan nan nan nan nan nan nan nan nan nan nan nan nan nan nan nan
nan nan nan nan nan 20 19 nan nan nan nan nan nan nan nan nan nan nan nan nan nan nan nan nan nan nan nan nan nan nan nan nan nan nan nan nan nan nan nan nan nan nan nan nan
nan nan nan nan nan nan nan 23 24 25 nan nan nan nan nan nan nan nan nan nan nan nan nan nan nan nan nan nan nan nan nan nan nan nan nan nan nan nan nan nan nan nan nan nan
nan nan 35 31 nan 27 nan nan 25 24 nan nan nan nan nan nan nan nan nan nan nan nan nan nan nan nan nan nan nan nan nan nan nan nan nan nan nan nan nan nan nan nan nan nan
Wind_Direction
nan nan nan nan nan nan nan nan nan nan nan nan nan nan nan 313 326 324 349 338 nan nan 26 7 nan nan nan nan nan nan 124 41 77 69 70 80 74 243 239 243 256 272 271 265
nan nan nan nan nan nan nan nan nan nan nan nan nan nan nan 318 349 335 352 347 352 357 6 14 23 39 nan nan nan nan 42 39 26 7 3 nan 267 273 276 269 273 281 nan nan
nan nan nan nan nan nan nan nan nan nan nan nan nan nan nan 317 340 342 350 352 353 356 354 2 12 6 10 nan nan 10 4 360 346 340 nan 291 277 270 264 281 280 269 nan nan
nan nan nan nan nan nan nan nan nan nan nan nan nan nan nan nan 338 342 348 352 354 354 0 360 358 1 7 8 6 5 353 347 337 330 308 308 290 288 287 279 269 nan nan nan
nan nan nan nan nan nan nan nan nan nan nan 118 nan nan nan nan nan 342 351 353 351 352 346 355 1 357 359 358 352 352 359 349 317 315 316 296 289 279 266 259 nan nan nan nan
nan nan nan nan nan nan nan nan nan nan 82 107 nan nan nan nan nan nan nan 334 349 347 346 347 347 351 352 340 342 341 349 340 315 304 314 304 307 280 275 278 nan nan nan nan
nan nan nan nan nan nan nan nan 25 287 267 12 nan nan nan nan nan nan nan nan 323 339 342 346 349 344 346 343 341 337 341 338 323 315 310 315 307 297 289 289 nan nan nan nan
nan nan nan nan nan nan nan nan 215 326 260 263 nan nan nan nan nan nan nan nan nan 313 335 348 346 346 345 343 343 343 339 338 333 327 323 329 314 281 302 320 nan nan nan nan
nan nan nan nan nan nan nan nan nan 208 nan 228 207 306 nan nan nan nan nan nan 278 284 306 333 339 336 340 337 342 341 337 337 337 328 320 327 327 324 303 309 306 nan nan nan
nan nan nan nan nan nan nan nan nan nan nan 257 343 266 261 nan nan nan nan nan 259 259 265 290 320 328 327 327 330 330 334 332 328 322 316 309 316 311 303 300 303 302 nan nan
nan nan nan nan nan nan nan nan nan nan nan 245 219 220 nan nan nan nan nan nan nan 265 271 269 285 306 319 316 319 320 321 321 314 306 304 299 298 304 299 299 292 292 292 nan
nan nan nan nan nan nan nan nan nan nan nan nan nan 229 nan nan nan nan nan nan nan nan 272 279 284 292 300 305 306 308 306 305 300 299 297 293 291 286 289 288 282 286 293 nan
nan nan nan nan nan nan nan nan nan nan nan nan 270 277 nan nan nan nan nan nan nan nan 282 282 286 292 295 297 294 295 295 296 294 287 290 289 290 294 293 295 297 nan nan nan
nan nan nan nan nan nan nan nan nan nan 247 nan nan nan nan nan nan nan nan nan nan nan nan 285 289 292 293 295 296 294 292 287 281 282 288 288 291 289 286 nan nan nan nan nan
nan nan nan nan nan nan nan nan nan nan nan nan nan nan nan nan nan nan nan nan nan nan nan nan 289 297 299 298 296 292 291 283 286 287 286 283 285 288 nan nan nan nan nan nan
nan nan nan nan nan nan nan nan nan nan nan nan nan nan nan nan nan nan nan nan nan nan nan nan nan 287 294 293 291 283 283 280 283 289 285 282 281 nan nan nan nan nan nan nan
nan 218 nan nan nan nan nan nan nan nan nan nan nan nan nan nan nan nan nan nan nan nan nan nan nan 284 287 289 284 283 284 287 287 282 283 286 289 290 nan nan nan nan nan nan
202 209 213 233 nan nan nan nan nan nan nan nan nan nan nan nan nan nan nan nan nan nan nan nan 279 280 283 281 284 284 283 282 284 286 290 292 nan nan nan nan nan nan nan nan
nan 204 220 nan nan nan nan nan nan nan nan nan nan nan nan nan nan nan nan nan nan nan nan nan 277 279 nan nan 284 283 283 285 nan nan nan nan nan nan nan nan nan nan nan nan
nan nan 216 235 nan nan nan nan nan nan nan nan nan nan nan nan nan nan nan nan nan nan nan nan nan nan nan nan nan nan nan nan nan nan nan nan nan nan nan nan nan nan nan nan
nan nan 228 234 239 nan nan nan nan nan nan nan nan nan nan nan nan nan nan nan nan nan nan nan nan nan nan nan nan nan nan nan nan nan nan nan nan nan nan nan nan nan nan nan
nan nan 241 234 241 nan nan nan nan 286 242 nan nan nan nan nan nan nan nan nan nan nan nan nan nan nan nan nan nan nan nan nan nan nan nan nan nan nan nan nan nan nan nan nan
226 nan 231 239 248 253 nan nan nan nan 239 263 nan nan nan nan nan nan nan nan nan nan nan nan nan nan nan nan nan nan nan nan nan nan nan nan nan nan nan nan nan nan nan nan
nan nan nan nan nan 228 251 nan nan nan nan nan nan nan nan nan nan nan nan nan nan nan nan nan nan nan nan nan nan nan nan nan nan nan nan nan nan nan nan nan nan nan nan nan
nan nan nan nan nan nan nan 265 259 250 nan nan nan nan nan nan nan nan nan nan nan nan nan nan nan nan nan nan nan nan nan nan nan nan nan nan nan nan nan nan nan nan nan nan
nan nan 247 249 nan 247 nan nan 239 262 nan nan nan nan nan nan nan nan nan nan nan nan nan nan nan nan nan nan nan nan nan nan nan nan nan nan nan nan nan nan nan nan nan nan